owner,sensor,date,latitude,longitude,vertical_datum,sea_water_practical_salinity,qcFlag 
DISL,ioos:station:DISL:CATA:1,2009-08-01T00:00:00Z,30.3085,-88.1395,2.23,23.35,1111122 
DISL,ioos:station:DISL:CATA:1,2009-08-01T00:30:00Z,30.3085,-88.1395,2.221,22.33,1111122 
DISL,ioos:station:DISL:CATA:1,2009-08-01T01:00:00Z,30.3085,-88.1395,2.198,22.26,1111122 
DISL,ioos:station:DISL:CATA:1,2009-08-01T01:30:00Z,30.3085,-88.1395,2.217,18.8,1111122 
DISL,ioos:station:DISL:CATA:1,2009-08-01T02:00:00Z,30.3085,-88.1395,2.264,21.43,1111122 
DISL,ioos:station:DISL:CATA:1,2009-08-01T02:30:00Z,30.3085,-88.1395,2.301,21.08,1111122 
DISL,ioos:station:DISL:CATA:1,2009-08-01T03:00:00Z,30.3085,-88.1395,2.337,21.32,1111122 
DISL,ioos:station:DISL:CATA:1,2009-08-01T03:30:00Z,30.3085,-88.1395,2.382,21.14,1111122 
DISL,ioos:station:DISL:CATA:1,2009-08-01T04:00:00Z,30.3085,-88.1395,2.391,21.12,1111122 
DISL,ioos:station:DISL:CATA:1,2009-08-01T04:30:00Z,30.3085,-88.1395,2.386,21.4,1111122 
DISL,ioos:station:DISL:CATA:1,2009-08-01T05:00:00Z,30.3085,-88.1395,2.421,21.43,1111122 
DISL,ioos:station:DISL:CATA:1,2009-08-01T05:30:00Z,30.3085,-88.1395,2.457,21.86,1111122 
DISL,ioos:station:DISL:CATA:1,2009-08-01T06:00:00Z,30.3085,-88.1395,2.481,23.84,1111122 
DISL,ioos:station:DISL:CATA:1,2009-08-01T06:30:00Z,30.3085,-88.1395,2.492,24.9,1111122 
DISL,ioos:station:DISL:CATA:1,2009-08-01T07:00:00Z,30.3085,-88.1395,2.537,25.25,1111122 
DISL,ioos:station:DISL:CATA:1,2009-08-01T07:30:00Z,30.3085,-88.1395,2.562,26.25,1111122 
DISL,ioos:station:DISL:CATA:1,2009-08-01T08:00:00Z,30.3085,-88.1395,2.587,26.92,1111122 
DISL,ioos:station:DISL:CATA:1,2009-08-01T08:30:00Z,30.3085,-88.1395,2.625,27.07,1111122 
DISL,ioos:station:DISL:CATA:1,2009-08-01T09:00:00Z,30.3085,-88.1395,2.667,27.42,1111122 
DISL,ioos:station:DISL:CATA:1,2009-08-01T09:30:00Z,30.3085,-88.1395,2.7,27.55,1111122 
DISL,ioos:station:DISL:CATA:1,2009-08-01T10:00:00Z,30.3085,-88.1395,2.731,27.95,1111122 
DISL,ioos:station:DISL:CATA:1,2009-08-01T10:30:00Z,30.3085,-88.1395,2.755,28.7,1111122 
DISL,ioos:station:DISL:CATA:1,2009-08-01T11:00:00Z,30.3085,-88.1395,2.769,29.02,1111122 
DISL,ioos:station:DISL:CATA:1,2009-08-01T11:30:00Z,30.3085,-88.1395,2.778,28.9,1111122 
DISL,ioos:station:DISL:CATA:1,2009-08-01T12:00:00Z,30.3085,-88.1395,2.795,29.29,1111122 
DISL,ioos:station:DISL:CATA:1,2009-08-01T12:30:00Z,30.3085,-88.1395,2.799,28.95,1111122 
DISL,ioos:station:DISL:CATA:1,2009-08-01T13:00:00Z,30.3085,-88.1395,2.819,29.25,1111122 
DISL,ioos:station:DISL:CATA:1,2009-08-01T13:30:00Z,30.3085,-88.1395,2.808,29.06,1111122 
DISL,ioos:station:DISL:CATA:1,2009-08-01T14:00:00Z,30.3085,-88.1395,2.802,29.04,1111122 
DISL,ioos:station:DISL:CATA:1,2009-08-01T14:30:00Z,30.3085,-88.1395,2.768,29.0,1111122 
DISL,ioos:station:DISL:CATA:1,2009-08-01T15:00:00Z,30.3085,-88.1395,2.791,28.97,1111122 
DISL,ioos:station:DISL:CATA:1,2009-08-01T15:30:00Z,30.3085,-88.1395,2.735,28.82,1111122 
DISL,ioos:station:DISL:CATA:1,2009-08-01T16:00:00Z,30.3085,-88.1395,2.739,28.9,1111122 
DISL,ioos:station:DISL:CATA:1,2009-08-01T16:30:00Z,30.3085,-88.1395,2.704,26.95,1111122 
DISL,ioos:station:DISL:CATA:1,2009-08-01T17:00:00Z,30.3085,-88.1395,2.657,26.29,1111122 
DISL,ioos:station:DISL:CATA:1,2009-08-01T17:30:00Z,30.3085,-88.1395,2.63,25.66,1111122 
DISL,ioos:station:DISL:CATA:1,2009-08-01T18:00:00Z,30.3085,-88.1395,2.59,24.93,1111122 
DISL,ioos:station:DISL:CATA:1,2009-08-01T18:30:00Z,30.3085,-88.1395,2.545,22.69,1111122 
DISL,ioos:station:DISL:CATA:1,2009-08-01T19:00:00Z,30.3085,-88.1395,2.514,22.1,1111122 
DISL,ioos:station:DISL:CATA:1,2009-08-01T19:30:00Z,30.3085,-88.1395,2.489,21.37,1111122 
DISL,ioos:station:DISL:CATA:1,2009-08-01T20:00:00Z,30.3085,-88.1395,2.45,20.98,1111122 
DISL,ioos:station:DISL:CATA:1,2009-08-01T20:30:00Z,30.3085,-88.1395,2.404,20.55,1111122 
DISL,ioos:station:DISL:CATA:1,2009-08-01T21:00:00Z,30.3085,-88.1395,2.368,20.1,1111122 
DISL,ioos:station:DISL:CATA:1,2009-08-01T21:30:00Z,30.3085,-88.1395,2.344,20.25,1111122 
DISL,ioos:station:DISL:CATA:1,2009-08-01T22:00:00Z,30.3085,-88.1395,2.324,20.0,1111122 
DISL,ioos:station:DISL:CATA:1,2009-08-01T22:30:00Z,30.3085,-88.1395,2.301,19.62,1111122 
DISL,ioos:station:DISL:CATA:1,2009-08-01T23:00:00Z,30.3085,-88.1395,2.296,19.56,1111122 
DISL,ioos:station:DISL:CATA:1,2009-08-01T23:30:00Z,30.3085,-88.1395,2.285,19.55,1111122 
DISL,ioos:station:DISL:CATA:1,2009-08-02T00:00:00Z,30.3085,-88.1395,2.264,19.64,1111122 
DISL,ioos:station:DISL:CATA:1,2009-08-02T00:30:00Z,30.3085,-88.1395,2.242,19.57,1111122 
DISL,ioos:station:DISL:CATA:1,2009-08-02T01:00:00Z,30.3085,-88.1395,2.23,19.55,1111122 
DISL,ioos:station:DISL:CATA:1,2009-08-02T01:30:00Z,30.3085,-88.1395,2.231,19.76,1111122 
DISL,ioos:station:DISL:CATA:1,2009-08-02T02:00:00Z,30.3085,-88.1395,2.263,19.41,1111122 
DISL,ioos:station:DISL:CATA:1,2009-08-02T02:30:00Z,30.3085,-88.1395,2.273,19.14,1111122 
DISL,ioos:station:DISL:CATA:1,2009-08-02T03:00:00Z,30.3085,-88.1395,2.318,18.97,1111122 
DISL,ioos:station:DISL:CATA:1,2009-08-02T03:30:00Z,30.3085,-88.1395,2.344,19.08,1111122 
DISL,ioos:station:DISL:CATA:1,2009-08-02T04:00:00Z,30.3085,-88.1395,2.356,18.63,1111122 
DISL,ioos:station:DISL:CATA:1,2009-08-02T04:30:00Z,30.3085,-88.1395,2.387,19.05,1111122 
DISL,ioos:station:DISL:CATA:1,2009-08-02T05:00:00Z,30.3085,-88.1395,2.404,19.46,1111122 
DISL,ioos:station:DISL:CATA:1,2009-08-02T05:30:00Z,30.3085,-88.1395,2.416,20.71,1111122 
DISL,ioos:station:DISL:CATA:1,2009-08-02T06:00:00Z,30.3085,-88.1395,2.438,20.59,1111122 
DISL,ioos:station:DISL:CATA:1,2009-08-02T06:30:00Z,30.3085,-88.1395,2.452,21.03,1111122 
DISL,ioos:station:DISL:CATA:1,2009-08-02T07:00:00Z,30.3085,-88.1395,2.466,21.28,1111122 
DISL,ioos:station:DISL:CATA:1,2009-08-02T07:30:00Z,30.3085,-88.1395,2.498,21.65,1111122 
DISL,ioos:station:DISL:CATA:1,2009-08-02T08:00:00Z,30.3085,-88.1395,2.538,22.65,1111122 
DISL,ioos:station:DISL:CATA:1,2009-08-02T08:30:00Z,30.3085,-88.1395,2.57,23.43,1111122 
DISL,ioos:station:DISL:CATA:1,2009-08-02T09:00:00Z,30.3085,-88.1395,2.61,23.95,1111122 
DISL,ioos:station:DISL:CATA:1,2009-08-02T09:30:00Z,30.3085,-88.1395,2.64,24.55,1111122 
DISL,ioos:station:DISL:CATA:1,2009-08-02T10:00:00Z,30.3085,-88.1395,2.677,24.98,1111122 
DISL,ioos:station:DISL:CATA:1,2009-08-02T10:30:00Z,30.3085,-88.1395,2.7,25.13,1111122 
DISL,ioos:station:DISL:CATA:1,2009-08-02T11:00:00Z,30.3085,-88.1395,2.73,25.36,1111122 
DISL,ioos:station:DISL:CATA:1,2009-08-02T11:30:00Z,30.3085,-88.1395,2.746,25.92,1111122 
DISL,ioos:station:DISL:CATA:1,2009-08-02T12:00:00Z,30.3085,-88.1395,2.748,26.58,1111122 
DISL,ioos:station:DISL:CATA:1,2009-08-02T12:30:00Z,30.3085,-88.1395,2.759,26.75,1111122 
DISL,ioos:station:DISL:CATA:1,2009-08-02T13:00:00Z,30.3085,-88.1395,2.757,27.52,1111122 
DISL,ioos:station:DISL:CATA:1,2009-08-02T13:30:00Z,30.3085,-88.1395,2.768,27.36,1111122 
DISL,ioos:station:DISL:CATA:1,2009-08-02T14:00:00Z,30.3085,-88.1395,2.767,27.4,1111122 
DISL,ioos:station:DISL:CATA:1,2009-08-02T14:30:00Z,30.3085,-88.1395,2.766,27.02,1111122 
DISL,ioos:station:DISL:CATA:1,2009-08-02T15:00:00Z,30.3085,-88.1395,2.756,27.94,1111122 
DISL,ioos:station:DISL:CATA:1,2009-08-02T15:30:00Z,30.3085,-88.1395,2.745,28.34,1111122 
DISL,ioos:station:DISL:CATA:1,2009-08-02T16:00:00Z,30.3085,-88.1395,2.733,28.42,1111122 
DISL,ioos:station:DISL:CATA:1,2009-08-02T16:30:00Z,30.3085,-88.1395,2.705,28.26,1111122 
DISL,ioos:station:DISL:CATA:1,2009-08-02T17:00:00Z,30.3085,-88.1395,2.672,28.44,1111122 
DISL,ioos:station:DISL:CATA:1,2009-08-02T17:30:00Z,30.3085,-88.1395,2.638,28.22,1111122 
DISL,ioos:station:DISL:CATA:1,2009-08-02T18:00:00Z,30.3085,-88.1395,2.602,28.38,1111122 
DISL,ioos:station:DISL:CATA:1,2009-08-02T18:30:00Z,30.3085,-88.1395,2.572,22.75,1111122 
DISL,ioos:station:DISL:CATA:1,2009-08-02T19:00:00Z,30.3085,-88.1395,2.519,27.26,1111122 
DISL,ioos:station:DISL:CATA:1,2009-08-02T19:30:00Z,30.3085,-88.1395,2.494,24.93,1111122 
DISL,ioos:station:DISL:CATA:1,2009-08-02T20:00:00Z,30.3085,-88.1395,2.46,23.98,1111122 
DISL,ioos:station:DISL:CATA:1,2009-08-02T20:30:00Z,30.3085,-88.1395,2.405,23.56,1111122 
DISL,ioos:station:DISL:CATA:1,2009-08-02T21:00:00Z,30.3085,-88.1395,2.376,23.78,1111122 
DISL,ioos:station:DISL:CATA:1,2009-08-02T21:30:00Z,30.3085,-88.1395,2.355,23.23,1111122 
DISL,ioos:station:DISL:CATA:1,2009-08-02T22:00:00Z,30.3085,-88.1395,2.319,23.32,1111122 
DISL,ioos:station:DISL:CATA:1,2009-08-02T22:30:00Z,30.3085,-88.1395,2.285,23.21,1111122 
DISL,ioos:station:DISL:CATA:1,2009-08-02T23:00:00Z,30.3085,-88.1395,2.249,23.02,1111122 
DISL,ioos:station:DISL:CATA:1,2009-08-02T23:30:00Z,30.3085,-88.1395,2.223,22.3,1111122 
DISL,ioos:station:DISL:CATA:1,2009-08-03T00:00:00Z,30.3085,-88.1395,2.214,22.28,1111122 
DISL,ioos:station:DISL:CATA:1,2009-08-03T00:30:00Z,30.3085,-88.1395,2.226,23.94,1111122 
DISL,ioos:station:DISL:CATA:1,2009-08-03T01:00:00Z,30.3085,-88.1395,2.237,23.53,1111122 
DISL,ioos:station:DISL:CATA:1,2009-08-03T01:30:00Z,30.3085,-88.1395,2.235,23.72,1111122 
DISL,ioos:station:DISL:CATA:1,2009-08-03T02:00:00Z,30.3085,-88.1395,2.253,24.22,1111122 
DISL,ioos:station:DISL:CATA:1,2009-08-03T02:30:00Z,30.3085,-88.1395,2.259,24.22,1111122 
DISL,ioos:station:DISL:CATA:1,2009-08-03T03:00:00Z,30.3085,-88.1395,2.288,23.94,1111122 
DISL,ioos:station:DISL:CATA:1,2009-08-03T03:30:00Z,30.3085,-88.1395,2.313,23.29,1111122 
DISL,ioos:station:DISL:CATA:1,2009-08-03T04:00:00Z,30.3085,-88.1395,2.348,20.29,1111122 
DISL,ioos:station:DISL:CATA:1,2009-08-03T04:30:00Z,30.3085,-88.1395,2.372,21.74,1111122 
DISL,ioos:station:DISL:CATA:1,2009-08-03T05:00:00Z,30.3085,-88.1395,2.382,22.81,1111122 
DISL,ioos:station:DISL:CATA:1,2009-08-03T05:30:00Z,30.3085,-88.1395,2.391,22.72,1111122 
DISL,ioos:station:DISL:CATA:1,2009-08-03T06:00:00Z,30.3085,-88.1395,2.409,24.89,1111122 
DISL,ioos:station:DISL:CATA:1,2009-08-03T06:30:00Z,30.3085,-88.1395,2.426,25.71,1111122 
DISL,ioos:station:DISL:CATA:1,2009-08-03T07:00:00Z,30.3085,-88.1395,2.448,26.12,1111122 
DISL,ioos:station:DISL:CATA:1,2009-08-03T07:30:00Z,30.3085,-88.1395,2.471,26.88,1111122 
DISL,ioos:station:DISL:CATA:1,2009-08-03T08:00:00Z,30.3085,-88.1395,2.501,27.4,1111122 
DISL,ioos:station:DISL:CATA:1,2009-08-03T08:30:00Z,30.3085,-88.1395,2.533,28.05,1111122 
DISL,ioos:station:DISL:CATA:1,2009-08-03T09:00:00Z,30.3085,-88.1395,2.559,28.63,1111122 
DISL,ioos:station:DISL:CATA:1,2009-08-03T09:30:00Z,30.3085,-88.1395,2.59,28.05,1111122 
DISL,ioos:station:DISL:CATA:1,2009-08-03T10:00:00Z,30.3085,-88.1395,2.632,27.45,1111122 
DISL,ioos:station:DISL:CATA:1,2009-08-03T10:30:00Z,30.3085,-88.1395,2.676,27.1,1111122 
DISL,ioos:station:DISL:CATA:1,2009-08-03T11:00:00Z,30.3085,-88.1395,2.71,27.31,1111122 
DISL,ioos:station:DISL:CATA:1,2009-08-03T11:30:00Z,30.3085,-88.1395,2.728,27.48,1111122 
DISL,ioos:station:DISL:CATA:1,2009-08-03T12:00:00Z,30.3085,-88.1395,2.75,28.0,1111122 
DISL,ioos:station:DISL:CATA:1,2009-08-03T12:30:00Z,30.3085,-88.1395,2.768,28.3,1111122 
DISL,ioos:station:DISL:CATA:1,2009-08-03T13:00:00Z,30.3085,-88.1395,2.778,28.61,1111122 
DISL,ioos:station:DISL:CATA:1,2009-08-03T13:30:00Z,30.3085,-88.1395,2.792,26.39,1111122 
DISL,ioos:station:DISL:CATA:1,2009-08-03T14:00:00Z,30.3085,-88.1395,2.792,28.94,1111122 
DISL,ioos:station:DISL:CATA:1,2009-08-03T14:30:00Z,30.3085,-88.1395,2.785,28.99,1111122 
DISL,ioos:station:DISL:CATA:1,2009-08-03T15:00:00Z,30.3085,-88.1395,2.787,26.88,1111122 
DISL,ioos:station:DISL:CATA:1,2009-08-03T15:30:00Z,30.3085,-88.1395,2.782,27.1,1111122 
DISL,ioos:station:DISL:CATA:1,2009-08-03T16:00:00Z,30.3085,-88.1395,2.754,27.32,1111122 
DISL,ioos:station:DISL:CATA:1,2009-08-03T16:30:00Z,30.3085,-88.1395,2.731,27.33,1111122 
DISL,ioos:station:DISL:CATA:1,2009-08-03T17:00:00Z,30.3085,-88.1395,2.722,22.02,1111122 
DISL,ioos:station:DISL:CATA:1,2009-08-03T17:30:00Z,30.3085,-88.1395,2.68,24.6,1111122 
DISL,ioos:station:DISL:CATA:1,2009-08-03T18:00:00Z,30.3085,-88.1395,2.641,24.04,1111122 
DISL,ioos:station:DISL:CATA:1,2009-08-03T18:30:00Z,30.3085,-88.1395,2.605,23.31,1111122 
DISL,ioos:station:DISL:CATA:1,2009-08-03T19:00:00Z,30.3085,-88.1395,2.563,22.55,1111122 
DISL,ioos:station:DISL:CATA:1,2009-08-03T19:30:00Z,30.3085,-88.1395,2.521,21.21,1111122 
DISL,ioos:station:DISL:CATA:1,2009-08-03T20:00:00Z,30.3085,-88.1395,2.506,20.82,1111122 
DISL,ioos:station:DISL:CATA:1,2009-08-03T20:30:00Z,30.3085,-88.1395,2.427,19.98,1111122 
DISL,ioos:station:DISL:CATA:1,2009-08-03T21:00:00Z,30.3085,-88.1395,2.385,18.89,1111122 
DISL,ioos:station:DISL:CATA:1,2009-08-03T21:30:00Z,30.3085,-88.1395,2.38,17.54,1111122 
DISL,ioos:station:DISL:CATA:1,2009-08-03T22:00:00Z,30.3085,-88.1395,2.364,16.88,1111122 
DISL,ioos:station:DISL:CATA:1,2009-08-03T22:30:00Z,30.3085,-88.1395,2.332,16.82,1111122 
DISL,ioos:station:DISL:CATA:1,2009-08-03T23:00:00Z,30.3085,-88.1395,2.297,16.63,1111122 
DISL,ioos:station:DISL:CATA:1,2009-08-03T23:30:00Z,30.3085,-88.1395,2.272,16.36,1111122 
DISL,ioos:station:DISL:CATA:1,2009-08-04T00:00:00Z,30.3085,-88.1395,2.279,15.95,1111122 
DISL,ioos:station:DISL:CATA:1,2009-08-04T00:30:00Z,30.3085,-88.1395,2.258,15.94,1111122 
DISL,ioos:station:DISL:CATA:1,2009-08-04T01:00:00Z,30.3085,-88.1395,2.244,16.15,1111122 
DISL,ioos:station:DISL:CATA:1,2009-08-04T01:30:00Z,30.3085,-88.1395,2.265,15.99,1111122 
DISL,ioos:station:DISL:CATA:1,2009-08-04T02:00:00Z,30.3085,-88.1395,2.243,16.21,1111122 
DISL,ioos:station:DISL:CATA:1,2009-08-04T02:30:00Z,30.3085,-88.1395,2.234,16.38,1111122 
DISL,ioos:station:DISL:CATA:1,2009-08-04T03:00:00Z,30.3085,-88.1395,2.274,15.98,1111122 
DISL,ioos:station:DISL:CATA:1,2009-08-04T03:30:00Z,30.3085,-88.1395,2.306,16.5,1111122 
DISL,ioos:station:DISL:CATA:1,2009-08-04T04:00:00Z,30.3085,-88.1395,2.347,16.9,1111122 
DISL,ioos:station:DISL:CATA:1,2009-08-04T04:30:00Z,30.3085,-88.1395,2.361,15.45,1111122 
DISL,ioos:station:DISL:CATA:1,2009-08-04T05:00:00Z,30.3085,-88.1395,2.359,15.81,1111122 
DISL,ioos:station:DISL:CATA:1,2009-08-04T05:30:00Z,30.3085,-88.1395,2.387,15.86,1111122 
DISL,ioos:station:DISL:CATA:1,2009-08-04T06:00:00Z,30.3085,-88.1395,2.413,15.87,1111122 
DISL,ioos:station:DISL:CATA:1,2009-08-04T06:30:00Z,30.3085,-88.1395,2.424,17.16,1111122 
DISL,ioos:station:DISL:CATA:1,2009-08-04T07:00:00Z,30.3085,-88.1395,2.44,18.13,1111122 
DISL,ioos:station:DISL:CATA:1,2009-08-04T07:30:00Z,30.3085,-88.1395,2.457,18.41,1111122 
DISL,ioos:station:DISL:CATA:1,2009-08-04T08:00:00Z,30.3085,-88.1395,2.476,18.73,1111122 
DISL,ioos:station:DISL:CATA:1,2009-08-04T08:30:00Z,30.3085,-88.1395,2.516,19.67,1111122 
DISL,ioos:station:DISL:CATA:1,2009-08-04T09:00:00Z,30.3085,-88.1395,2.545,20.76,1111122 
DISL,ioos:station:DISL:CATA:1,2009-08-04T09:30:00Z,30.3085,-88.1395,2.582,21.76,1111122 
DISL,ioos:station:DISL:CATA:1,2009-08-04T10:00:00Z,30.3085,-88.1395,2.614,24.69,1111122 
DISL,ioos:station:DISL:CATA:1,2009-08-04T10:30:00Z,30.3085,-88.1395,2.65,25.18,1111122 
DISL,ioos:station:DISL:CATA:1,2009-08-04T11:00:00Z,30.3085,-88.1395,2.668,24.94,1111122 
DISL,ioos:station:DISL:CATA:1,2009-08-04T11:30:00Z,30.3085,-88.1395,2.693,25.2,1111122 
DISL,ioos:station:DISL:CATA:1,2009-08-04T12:00:00Z,30.3085,-88.1395,2.721,25.68,1111122 
DISL,ioos:station:DISL:CATA:1,2009-08-04T12:30:00Z,30.3085,-88.1395,2.751,25.99,1111122 
DISL,ioos:station:DISL:CATA:1,2009-08-04T13:00:00Z,30.3085,-88.1395,2.771,26.06,1111122 
DISL,ioos:station:DISL:CATA:1,2009-08-04T13:30:00Z,30.3085,-88.1395,2.786,26.42,1111122 
DISL,ioos:station:DISL:CATA:1,2009-08-04T14:00:00Z,30.3085,-88.1395,2.783,26.83,1111122 
DISL,ioos:station:DISL:CATA:1,2009-08-04T14:30:00Z,30.3085,-88.1395,2.795,27.36,1111122 
DISL,ioos:station:DISL:CATA:1,2009-08-04T15:00:00Z,30.3085,-88.1395,2.787,27.72,1111122 
DISL,ioos:station:DISL:CATA:1,2009-08-04T15:30:00Z,30.3085,-88.1395,2.79,28.11,1111122 
DISL,ioos:station:DISL:CATA:1,2009-08-04T16:00:00Z,30.3085,-88.1395,2.785,28.64,1111122 
DISL,ioos:station:DISL:CATA:1,2009-08-04T16:30:00Z,30.3085,-88.1395,2.766,29.23,1111122 
DISL,ioos:station:DISL:CATA:1,2009-08-04T17:00:00Z,30.3085,-88.1395,2.74,29.39,1111122 
DISL,ioos:station:DISL:CATA:1,2009-08-04T17:30:00Z,30.3085,-88.1395,2.723,29.6,1111122 
DISL,ioos:station:DISL:CATA:1,2009-08-04T18:00:00Z,30.3085,-88.1395,2.702,29.41,1111122 
DISL,ioos:station:DISL:CATA:1,2009-08-04T18:30:00Z,30.3085,-88.1395,2.675,28.03,1111122 
DISL,ioos:station:DISL:CATA:1,2009-08-04T19:00:00Z,30.3085,-88.1395,2.63,25.85,1111122 
DISL,ioos:station:DISL:CATA:1,2009-08-04T19:30:00Z,30.3085,-88.1395,2.595,24.98,1111122 
DISL,ioos:station:DISL:CATA:1,2009-08-04T20:00:00Z,30.3085,-88.1395,2.554,24.61,1111122 
DISL,ioos:station:DISL:CATA:1,2009-08-04T20:30:00Z,30.3085,-88.1395,2.515,24.18,1111122 
DISL,ioos:station:DISL:CATA:1,2009-08-04T21:00:00Z,30.3085,-88.1395,2.478,24.16,1111122 
DISL,ioos:station:DISL:CATA:1,2009-08-04T21:30:00Z,30.3085,-88.1395,2.449,24.02,1111122 
DISL,ioos:station:DISL:CATA:1,2009-08-04T22:00:00Z,30.3085,-88.1395,2.433,24.2,1111122 
DISL,ioos:station:DISL:CATA:1,2009-08-04T22:30:00Z,30.3085,-88.1395,2.409,23.95,1111122 
DISL,ioos:station:DISL:CATA:1,2009-08-04T23:00:00Z,30.3085,-88.1395,2.342,23.99,1111122 
DISL,ioos:station:DISL:CATA:1,2009-08-04T23:30:00Z,30.3085,-88.1395,2.324,24.03,1111122 
DISL,ioos:station:DISL:CATA:1,2009-08-05T00:00:00Z,30.3085,-88.1395,2.319,23.44,1111122 
DISL,ioos:station:DISL:CATA:1,2009-08-05T00:30:00Z,30.3085,-88.1395,2.321,23.62,1111122 
DISL,ioos:station:DISL:CATA:1,2009-08-05T01:00:00Z,30.3085,-88.1395,2.304,23.07,1111122 
DISL,ioos:station:DISL:CATA:1,2009-08-05T01:30:00Z,30.3085,-88.1395,2.296,24.26,1111122 
DISL,ioos:station:DISL:CATA:1,2009-08-05T02:00:00Z,30.3085,-88.1395,2.3,24.31,1111122 
DISL,ioos:station:DISL:CATA:1,2009-08-05T02:30:00Z,30.3085,-88.1395,2.322,24.53,1111122 
DISL,ioos:station:DISL:CATA:1,2009-08-05T03:00:00Z,30.3085,-88.1395,2.348,24.72,1111122 
DISL,ioos:station:DISL:CATA:1,2009-08-05T03:30:00Z,30.3085,-88.1395,2.354,24.66,1111122 
DISL,ioos:station:DISL:CATA:1,2009-08-05T04:00:00Z,30.3085,-88.1395,2.347,24.0,1111122 
DISL,ioos:station:DISL:CATA:1,2009-08-05T04:30:00Z,30.3085,-88.1395,2.356,20.19,1111122 
DISL,ioos:station:DISL:CATA:1,2009-08-05T05:00:00Z,30.3085,-88.1395,2.372,18.93,1111122 
DISL,ioos:station:DISL:CATA:1,2009-08-05T05:30:00Z,30.3085,-88.1395,2.378,19.65,1111122 
DISL,ioos:station:DISL:CATA:1,2009-08-05T06:00:00Z,30.3085,-88.1395,2.387,20.23,1111122 
DISL,ioos:station:DISL:CATA:1,2009-08-05T06:30:00Z,30.3085,-88.1395,2.421,20.81,1111122 
DISL,ioos:station:DISL:CATA:1,2009-08-05T07:00:00Z,30.3085,-88.1395,2.433,22.05,1111122 
DISL,ioos:station:DISL:CATA:1,2009-08-05T07:30:00Z,30.3085,-88.1395,2.448,23.23,1111122 
DISL,ioos:station:DISL:CATA:1,2009-08-05T08:00:00Z,30.3085,-88.1395,2.468,23.68,1111122 
DISL,ioos:station:DISL:CATA:1,2009-08-05T08:30:00Z,30.3085,-88.1395,2.493,24.63,1111122 
DISL,ioos:station:DISL:CATA:1,2009-08-05T09:00:00Z,30.3085,-88.1395,2.515,25.13,1111122 
DISL,ioos:station:DISL:CATA:1,2009-08-05T09:30:00Z,30.3085,-88.1395,2.537,26.08,1111122 
DISL,ioos:station:DISL:CATA:1,2009-08-05T10:00:00Z,30.3085,-88.1395,2.55,26.35,1111122 
DISL,ioos:station:DISL:CATA:1,2009-08-05T10:30:00Z,30.3085,-88.1395,2.589,25.83,1111122 
DISL,ioos:station:DISL:CATA:1,2009-08-05T11:00:00Z,30.3085,-88.1395,2.661,26.29,1111122 
DISL,ioos:station:DISL:CATA:1,2009-08-05T11:30:00Z,30.3085,-88.1395,2.654,25.8,1111122 
DISL,ioos:station:DISL:CATA:1,2009-08-05T12:00:00Z,30.3085,-88.1395,2.69,26.31,1111122 
DISL,ioos:station:DISL:CATA:1,2009-08-05T12:30:00Z,30.3085,-88.1395,2.698,26.36,1111122 
DISL,ioos:station:DISL:CATA:1,2009-08-05T13:00:00Z,30.3085,-88.1395,2.728,23.89,1111122 
DISL,ioos:station:DISL:CATA:1,2009-08-05T13:30:00Z,30.3085,-88.1395,2.734,27.35,1111122 
DISL,ioos:station:DISL:CATA:1,2009-08-05T14:00:00Z,30.3085,-88.1395,2.777,27.05,1111122 
DISL,ioos:station:DISL:CATA:1,2009-08-05T14:30:00Z,30.3085,-88.1395,2.795,26.98,1111122 
DISL,ioos:station:DISL:CATA:1,2009-08-05T15:00:00Z,30.3085,-88.1395,2.785,26.59,1111122 
DISL,ioos:station:DISL:CATA:1,2009-08-05T15:30:00Z,30.3085,-88.1395,2.759,23.13,1111122 
DISL,ioos:station:DISL:CATA:1,2009-08-05T16:00:00Z,30.3085,-88.1395,2.762,27.71,1111122 
DISL,ioos:station:DISL:CATA:1,2009-08-05T16:30:00Z,30.3085,-88.1395,2.768,28.38,1111122 
DISL,ioos:station:DISL:CATA:1,2009-08-05T17:00:00Z,30.3085,-88.1395,2.762,28.62,1111122 
DISL,ioos:station:DISL:CATA:1,2009-08-05T17:30:00Z,30.3085,-88.1395,2.759,28.74,1111122 
DISL,ioos:station:DISL:CATA:1,2009-08-05T18:00:00Z,30.3085,-88.1395,2.72,28.83,1111122 
DISL,ioos:station:DISL:CATA:1,2009-08-05T18:30:00Z,30.3085,-88.1395,2.698,28.87,1111122 
DISL,ioos:station:DISL:CATA:1,2009-08-05T19:00:00Z,30.3085,-88.1395,2.675,28.85,1111122 
DISL,ioos:station:DISL:CATA:1,2009-08-05T19:30:00Z,30.3085,-88.1395,2.669,28.68,1111122 
DISL,ioos:station:DISL:CATA:1,2009-08-05T20:00:00Z,30.3085,-88.1395,2.63,24.99,1111122 
DISL,ioos:station:DISL:CATA:1,2009-08-05T20:30:00Z,30.3085,-88.1395,2.556,28.75,1111122 
DISL,ioos:station:DISL:CATA:1,2009-08-05T21:00:00Z,30.3085,-88.1395,2.519,27.17,1111122 
DISL,ioos:station:DISL:CATA:1,2009-08-05T21:30:00Z,30.3085,-88.1395,2.499,26.84,1111122 
DISL,ioos:station:DISL:CATA:1,2009-08-05T22:00:00Z,30.3085,-88.1395,2.437,26.88,1111122 
DISL,ioos:station:DISL:CATA:1,2009-08-05T22:30:00Z,30.3085,-88.1395,2.423,25.99,1111122 
DISL,ioos:station:DISL:CATA:1,2009-08-05T23:00:00Z,30.3085,-88.1395,2.44,24.41,1111122 
DISL,ioos:station:DISL:CATA:1,2009-08-05T23:30:00Z,30.3085,-88.1395,2.408,25.99,1111122 
DISL,ioos:station:DISL:CATA:1,2009-08-06T00:00:00Z,30.3085,-88.1395,2.366,26.03,1111122 
DISL,ioos:station:DISL:CATA:1,2009-08-06T00:30:00Z,30.3085,-88.1395,2.387,26.39,1111122 
DISL,ioos:station:DISL:CATA:1,2009-08-06T01:00:00Z,30.3085,-88.1395,2.337,25.68,1111122 
DISL,ioos:station:DISL:CATA:1,2009-08-06T01:30:00Z,30.3085,-88.1395,2.31,24.7,1111122 
DISL,ioos:station:DISL:CATA:1,2009-08-06T02:00:00Z,30.3085,-88.1395,2.299,25.17,1111122 
DISL,ioos:station:DISL:CATA:1,2009-08-06T02:30:00Z,30.3085,-88.1395,2.355,24.31,1111122 
DISL,ioos:station:DISL:CATA:1,2009-08-06T03:00:00Z,30.3085,-88.1395,2.287,23.23,1111122 
DISL,ioos:station:DISL:CATA:1,2009-08-06T03:30:00Z,30.3085,-88.1395,2.312,22.78,1111122 
DISL,ioos:station:DISL:CATA:1,2009-08-06T04:00:00Z,30.3085,-88.1395,2.342,23.08,1111122 
DISL,ioos:station:DISL:CATA:1,2009-08-06T04:30:00Z,30.3085,-88.1395,2.371,23.58,1111122 
DISL,ioos:station:DISL:CATA:1,2009-08-06T05:00:00Z,30.3085,-88.1395,2.335,21.68,1111122 
DISL,ioos:station:DISL:CATA:1,2009-08-06T05:30:00Z,30.3085,-88.1395,2.375,22.59,1111122 
DISL,ioos:station:DISL:CATA:1,2009-08-06T06:00:00Z,30.3085,-88.1395,2.395,22.96,1111122 
DISL,ioos:station:DISL:CATA:1,2009-08-06T06:30:00Z,30.3085,-88.1395,2.425,23.5,1111122 
DISL,ioos:station:DISL:CATA:1,2009-08-06T07:00:00Z,30.3085,-88.1395,2.454,24.33,1111122 
DISL,ioos:station:DISL:CATA:1,2009-08-06T07:30:00Z,30.3085,-88.1395,2.462,24.68,1111122 
DISL,ioos:station:DISL:CATA:1,2009-08-06T08:00:00Z,30.3085,-88.1395,2.469,25.34,1111122 
DISL,ioos:station:DISL:CATA:1,2009-08-06T08:30:00Z,30.3085,-88.1395,2.461,25.14,1111122 
DISL,ioos:station:DISL:CATA:1,2009-08-06T09:00:00Z,30.3085,-88.1395,2.516,26.28,1111122 
DISL,ioos:station:DISL:CATA:1,2009-08-06T09:30:00Z,30.3085,-88.1395,2.526,26.37,1111122 
DISL,ioos:station:DISL:CATA:1,2009-08-06T10:00:00Z,30.3085,-88.1395,2.509,26.44,1111122 
DISL,ioos:station:DISL:CATA:1,2009-08-06T10:30:00Z,30.3085,-88.1395,2.559,26.57,1111122 
DISL,ioos:station:DISL:CATA:1,2009-08-06T11:00:00Z,30.3085,-88.1395,2.598,26.85,1111122 
DISL,ioos:station:DISL:CATA:1,2009-08-06T11:30:00Z,30.3085,-88.1395,2.62,26.94,1111122 
DISL,ioos:station:DISL:CATA:1,2009-08-06T12:00:00Z,30.3085,-88.1395,2.65,27.04,1111122 
DISL,ioos:station:DISL:CATA:1,2009-08-06T12:30:00Z,30.3085,-88.1395,2.686,27.62,1111122 
DISL,ioos:station:DISL:CATA:1,2009-08-06T13:00:00Z,30.3085,-88.1395,2.714,27.79,1111122 
DISL,ioos:station:DISL:CATA:1,2009-08-06T13:30:00Z,30.3085,-88.1395,2.719,27.95,1111122 
DISL,ioos:station:DISL:CATA:1,2009-08-06T14:00:00Z,30.3085,-88.1395,2.71,27.72,1111122 